[[{"header":{"parameterUnit":"m.s-1","parameterCategory":1,"la1":30.2992,"la2":30.254,"lo1":-89.0895,"lo2":-89.0443,"dy":0.0025,"dx":0.0025,"nx":19,"ny":19,"refTime":"2026-03-13T03:00:00:Z","depth":0,"parameterNumber":2,"parameterNumberName":"U-component_of_WINDS"},"data":[0,0,0,-0.2612,-0.2612,-0.2614,-0.2614,-0.262,-0.262,0,0,0,0,0,0,0,0,0,0,0,-0.2613,-0.2613,-0.2612,-0.2612,-0.2614,-0.2614,-0.262,-0.262,0,0,0,0,0,0,0,0,0,0,0,-0.2613,-0.2613,-0.2613,-0.2612,-0.2614,-0.2614,-0.262,-0.2617,0,0,0,0,0,0,0,0,0,0,-0.2615,-0.2616,-0.2613,-0.2613,-0.2612,-0.2614,-0.2614,-0.2617,-0.2617,-0.262,0,-0.2622,0,-0.2621,-0.262,-0.262,0,0,0,-0.2611,-0.2616,-0.2615,-0.2613,-0.2612,-0.2614,-0.2613,-0.2617,-0.2618,-0.262,-0.2622,-0.2622,-0.2621,-0.262,-0.262,-0.2636,-0.2636,0,0,-0.2611,-0.2614,-0.2615,-0.2616,-0.2615,-0.2613,-0.2613,-0.2617,-0.262,-0.2622,-0.2622,-0.2621,-0.262,-0.262,-0.2636,-0.2636,0,0,0,-0.2611,-0.2614,-0.2613,-0.2616,-0.2616,-0.2613,-0.2613,-0.2619,-0.2619,-0.2622,-0.2621,-0.262,-0.2621,-0.2636,-0.2636,-0.2644,0,0,0,-0.2611,-0.2614,-0.2613,-0.2614,-0.2616,-0.2617,-0.2615,-0.2619,-0.2619,-0.2621,-0.262,-0.2621,-0.2636,-0.2636,-0.2643,-0.2647,0,0,0,-0.2612,-0.2614,-0.2614,-0.2615,-0.2615,-0.2617,-0.2617,-0.2619,-0.2618,-0.262,-0.2621,-0.2636,-0.2636,-0.2643,-0.2646,-0.2652,0,0,0,-0.2614,-0.2621,-0.2615,-0.2622,-0.2615,-0.2622,-0.2617,-0.2622,-0.2624,-0.2621,-0.2636,-0.2636,-0.2642,-0.2646,-0.2651,-0.2657,-0.2659,0,0,-0.2624,-0.2622,-0.2627,-0.2621,-0.2629,-0.2621,-0.2631,-0.2631,-0.2629,-0.2634,-0.2634,-0.2643,-0.2646,-0.2652,-0.2673,-0.2675,0,0,0,-0.2631,-0.2634,-0.2636,-0.2638,-0.2639,-0.2639,-0.2638,-0.2638,-0.2642,-0.2632,-0.2647,-0.2648,-0.2651,-0.2654,-0.2656,-0.2659,-0.2637,-0.2637,-0.2637,-0.2649,-0.2647,-0.2654,-0.2652,-0.2654,-0.2653,-0.2655,-0.2655,-0.2652,-0.2655,-0.2657,-0.267,-0.2673,-0.2674,-0.2677,-0.266,-0.266,-0.266,-0.266,-0.2665,-0.2669,-0.2665,-0.267,-0.2668,-0.2673,-0.2672,-0.267,-0.2674,-0.2668,-0.2671,-0.2665,-0.2677,-0.2679,-0.266,-0.266,-0.266,-0.266,-0.266,-0.2677,-0.2678,-0.2678,-0.2682,-0.2685,-0.2683,-0.2688,-0.2685,-0.2683,-0.2686,-0.2687,-0.2687,-0.2687,-0.2686,-0.2686,-0.2687,-0.2687,-0.2687,-0.2687,-0.2689,-0.2689,-0.2693,-0.2694,-0.2696,-0.2697,-0.2697,-0.2698,-0.2699,-0.2697,-0.2697,-0.2694,-0.2678,-0.2674,-0.2687,-0.2687,-0.2687,-0.2687,-0.2687,-0.2706,-0.2702,-0.2708,-0.2709,-0.2711,-0.2715,-0.2712,-0.2715,-0.2716,-0.2719,-0.2715,-0.2704,-0.2702,-0.27,-0.2697,-0.2715,-0.2715,-0.2715,-0.2715,-0.2716,-0.2715,-0.2721,-0.2723,-0.2726,-0.2724,-0.2731,-0.2731,-0.2731,-0.2731,-0.2728,-0.2724,-0.2723,-0.2721,-0.272,-0.2717,-0.2739,-0.2739,-0.274,-0.2726,-0.2725,-0.2732,-0.2731,-0.2732,-0.2733,-0.2741,-0.2745,-0.2743,-0.274,-0.2732,-0.2731,-0.2724,-0.2721,-0.2718,-0.2715,-0.271,0,0]},{"header":{"parameterUnit":"m.s-1","parameterCategory":1,"la1":30.2992,"la2":30.254,"lo1":-89.0895,"lo2":-89.0443,"dy":0.0025,"dx":0.0025,"nx":19,"ny":19,"refTime":"2026-03-13T03:00:00:Z","depth":0,"parameterNumber":3,"parameterNumberName":"V-component_of_WINDS"},"data":[0,0,0,2.8131,2.8131,2.8143,2.8143,2.8166,2.8167,0,0,0,0,0,0,0,0,0,0,0,2.8132,2.8133,2.8131,2.8131,2.8143,2.8143,2.8166,2.8167,0,0,0,0,0,0,0,0,0,0,0,2.8132,2.8133,2.8133,2.8131,2.8143,2.8143,2.8166,2.8154,0,0,0,0,0,0,0,0,0,0,2.8141,2.8148,2.8133,2.8133,2.8131,2.8143,2.8143,2.8154,2.8155,2.8165,0,2.8174,0,2.8171,2.8169,2.8169,0,0,0,2.8127,2.8147,2.8145,2.8133,2.8131,2.8143,2.8137,2.8154,2.8156,2.8167,2.8175,2.8175,2.8171,2.8169,2.8169,2.8236,2.8236,0,0,2.8127,2.8137,2.8144,2.8147,2.8146,2.8136,2.8137,2.8155,2.8165,2.8175,2.8176,2.8172,2.8169,2.8169,2.8235,2.8236,0,0,0,2.8127,2.8137,2.8135,2.8146,2.8148,2.8137,2.8137,2.8164,2.8162,2.8176,2.8172,2.8169,2.817,2.8235,2.8236,2.8269,0,0,0,2.8127,2.8137,2.8135,2.8142,2.8147,2.8156,2.8146,2.8161,2.8163,2.8172,2.8169,2.817,2.8234,2.8235,2.8267,2.8282,0,0,0,2.813,2.8138,2.8141,2.8142,2.8148,2.8155,2.8155,2.8161,2.8161,2.8169,2.817,2.8234,2.8235,2.8265,2.8279,2.8301,0,0,0,2.8136,2.8172,2.8142,2.818,2.8148,2.8176,2.8154,2.8176,2.8187,2.8169,2.8234,2.8236,2.8264,2.8277,2.83,2.8321,2.8331,0,0,2.8187,2.8178,2.82,2.8173,2.821,2.8174,2.8215,2.8216,2.8207,2.8227,2.8228,2.8267,2.8279,2.8301,2.8389,2.8397,0,0,0,2.8219,2.8234,2.8242,2.8253,2.8254,2.8256,2.8249,2.8249,2.8264,2.822,2.8282,2.8289,2.8301,2.8311,2.8318,2.8327,2.8241,2.8241,2.8241,2.8305,2.8292,2.8326,2.8314,2.8325,2.8317,2.8324,2.8323,2.8307,2.8322,2.8327,2.8382,2.8393,2.8399,2.8408,2.8339,2.8339,2.8339,2.8339,2.8376,2.8395,2.8372,2.8397,2.8383,2.8404,2.8398,2.8385,2.8402,2.8377,2.8387,2.8359,2.8408,2.8416,2.8342,2.8341,2.8341,2.8341,2.834,2.8429,2.8435,2.8435,2.8448,2.846,2.8448,2.8464,2.8451,2.8439,2.845,2.8452,2.8452,2.8448,2.8452,2.8453,2.8453,2.8453,2.8453,2.8453,2.8483,2.8481,2.8497,2.8501,2.8505,2.851,2.8502,2.8507,2.8508,2.8497,2.8497,2.8478,2.8416,2.8399,2.8456,2.8456,2.8455,2.8455,2.8455,2.8556,2.8537,2.8561,2.8566,2.8569,2.8581,2.8564,2.8574,2.8576,2.8584,2.8564,2.8521,2.8511,2.8505,2.8491,2.8568,2.8568,2.8568,2.8568,2.8599,2.8593,2.8614,2.8622,2.8628,2.8616,2.8642,2.8637,2.8629,2.8629,2.8616,2.8597,2.8592,2.8585,2.8578,2.8564,2.8658,2.8658,2.8658,2.8642,2.8636,2.8661,2.8652,2.8653,2.8655,2.8679,2.8688,2.8675,2.8662,2.8628,2.8624,2.8593,2.8585,2.8568,2.8557,2.8532,0,0]}]]